• In Uzbekistan
  • List of Countries
  • For 7 days
  • Water Temperature
  • Weather Map
  • Weather Widgets
  • user-avatar
    Login

    Hourly Weather Elista

    Today, 15 September, Sunday

    Time Temperature Precipitation Wind Pressure Humidity
    00:00 +17°C° 0 mm 4 mps 747 mmHg 52%
    01:00 +16°C° 0 mm 3 mps 747 mmHg 57%
    02:00 +16°C° 0 mm 3 mps 746 mmHg 61%
    03:00 +14°C° 0 mm 3 mps 746 mmHg 67%
    04:00 +14°C° 0 mm 3 mps 746 mmHg 68%
    05:00 +14°C° 0 mm 3 mps 746 mmHg 70%
    06:00 +13°C° 0 mm 3 mps 747 mmHg 72%
    07:00 +17°C° 0 mm 3 mps 747 mmHg 64%
    08:00 +19°C° 0 mm 3 mps 747 mmHg 55%
    09:00 +21°C° 0 mm 3 mps 747 mmHg 47%
    10:00 +22°C° 0 mm 3 mps 746 mmHg 42%
    11:00 +25°C° 0 mm 2 mps 746 mmHg 38%
    12:00 +26°C° 0 mm 2 mps 746 mmHg 33%
    13:00 +26°C° 0 mm 2 mps 746 mmHg 32%
    14:00 +27°C° 0 mm 2 mps 746 mmHg 30%
    15:00 +28°C° 0 mm 2 mps 746 mmHg 28%
    16:00 +27°C° 0 mm 3 mps 746 mmHg 31%
    17:00 +26°C° 0 mm 3 mps 746 mmHg 33%
    18:00 +25°C° 0 mm 3 mps 746 mmHg 36%
    19:00 +22°C° 0 mm 4 mps 746 mmHg 43%
    20:00 +20°C° 0 mm 5 mps 747 mmHg 50%
    21:00 +17°C° 0 mm 5 mps 747 mmHg 57%
    22:00 +17°C° 0 mm 4 mps 747 mmHg 59%
    23:00 +17°C° 0 mm 4 mps 747 mmHg 61%

    Tomorrow, 16 September, Monday

    Time Temperature Precipitation Wind Pressure Humidity
    00:00 +16°C° 0 mm 3 mps 747 mmHg 63%
    01:00 +14°C° 0 mm 3 mps 748 mmHg 60%
    02:00 +13°C° 0 mm 3 mps 748 mmHg 56%
    03:00 +13°C° 0 mm 3 mps 748 mmHg 53%
    04:00 +13°C° 0 mm 2 mps 748 mmHg 53%
    05:00 +12°C° 0 mm 2 mps 748 mmHg 54%
    06:00 +12°C° 0 mm 1 mps 748 mmHg 54%
    07:00 +14°C° 0 mm 1 mps 748 mmHg 46%
    08:00 +18°C° 0 mm 1 mps 748 mmHg 38%
    09:00 +19°C° 0 mm 0 mps 748 mmHg 30%
    10:00 +22°C° 0 mm 1 mps 747 mmHg 27%
    11:00 +23°C° 0 mm 1 mps 747 mmHg 23%
    12:00 +25°C° 0 mm 1 mps 746 mmHg 19%
    13:00 +25°C° 0 mm 2 mps 745 mmHg 19%
    14:00 +26°C° 0 mm 3 mps 745 mmHg 18%
    15:00 +27°C° 0 mm 3 mps 744 mmHg 17%
    16:00 +25°C° 0 mm 3 mps 744 mmHg 22%
    17:00 +23°C° 0 mm 2 mps 743 mmHg 26%
    18:00 +22°C° 0 mm 1 mps 743 mmHg 31%
    19:00 +21°C° 0 mm 1 mps 743 mmHg 33%
    20:00 +20°C° 0 mm 1 mps 743 mmHg 34%
    21:00 +19°C° 0 mm 1 mps 743 mmHg 36%
    22:00 +18°C° 0 mm 1 mps 743 mmHg 39%
    23:00 +18°C° 0 mm 1 mps 743 mmHg 42%

    Day after tomorrow, 17 September, Tuesday

    Time Temperature Precipitation Wind Pressure Humidity
    00:00 +17°C° 0 mm 2 mps 742 mmHg 45%
    01:00 +17°C° 0 mm 2 mps 742 mmHg 47%
    02:00 +16°C° 0 mm 2 mps 742 mmHg 49%
    03:00 +16°C° 0 mm 2 mps 742 mmHg 51%
    04:00 +16°C° 0 mm 2 mps 742 mmHg 49%
    05:00 +15°C° 0 mm 2 mps 742 mmHg 47%
    06:00 +15°C° 0 mm 2 mps 742 mmHg 45%
    07:00 +18°C° 0 mm 2 mps 742 mmHg 38%
    08:00 +20°C° 0 mm 3 mps 742 mmHg 30%
    09:00 +23°C° 0 mm 4 mps 742 mmHg 23%
    10:00 +25°C° 0 mm 4 mps 742 mmHg 22%
    11:00 +27°C° 0 mm 5 mps 742 mmHg 21%
    12:00 +28°C° 0 mm 5 mps 741 mmHg 20%
    13:00 +28°C° 0 mm 5 mps 741 mmHg 20%
    14:00 +28°C° 0 mm 5 mps 741 mmHg 21%
    15:00 +28°C° 0 mm 6 mps 741 mmHg 21%
    16:00 +27°C° 0 mm 5 mps 740 mmHg 25%
    17:00 +26°C° 0 mm 5 mps 740 mmHg 28%
    18:00 +25°C° 0 mm 4 mps 740 mmHg 32%
    19:00 +22°C° 0 mm 4 mps 740 mmHg 35%
    20:00 +21°C° 0 mm 4 mps 740 mmHg 38%
    21:00 +20°C° 0 mm 4 mps 740 mmHg 41%
    22:00 +20°C° 0 mm 5 mps 740 mmHg 42%
    23:00 +19°C° 0 mm 5 mps 740 mmHg 43%

    18 September, Wednesday

    Time Temperature Precipitation Wind Pressure Humidity
    00:00 +19°C° 0 mm 6 mps 740 mmHg 45%
    01:00 +19°C° 0 mm 6 mps 740 mmHg 45%
    02:00 +17°C° 0 mm 5 mps 741 mmHg 46%
    03:00 +17°C° 0 mm 5 mps 741 mmHg 47%
    04:00 +16°C° 0 mm 5 mps 741 mmHg 52%
    05:00 +15°C° 0 mm 6 mps 741 mmHg 57%
    06:00 +15°C° 0 mm 6 mps 741 mmHg 62%
    07:00 +17°C° 0 mm 7 mps 742 mmHg 57%
    08:00 +19°C° 0 mm 9 mps 742 mmHg 53%
    09:00 +22°C° 0 mm 10 mps 742 mmHg 48%
    10:00 +24°C° 0 mm 10 mps 742 mmHg 44%
    11:00 +26°C° 0 mm 10 mps 742 mmHg 41%
    12:00 +27°C° 0 mm 10 mps 742 mmHg 37%
    13:00 +28°C° 0 mm 9 mps 741 mmHg 34%
    14:00 +29°C° 0 mm 8 mps 741 mmHg 31%
    15:00 +31°C° 0 mm 8 mps 740 mmHg 28%
    16:00 +29°C° 0 mm 7 mps 740 mmHg 28%
    17:00 +29°C° 0 mm 6 mps 740 mmHg 29%
    18:00 +28°C° 0 mm 5 mps 740 mmHg 29%
    19:00 +26°C° 0 mm 5 mps 740 mmHg 36%
    20:00 +23°C° 0 mm 5 mps 741 mmHg 43%
    21:00 +21°C° 0 mm 5 mps 741 mmHg 50%
    22:00 +20°C° 0 mm 5 mps 742 mmHg 58%
    23:00 +17°C° 0 mm 5 mps 743 mmHg 66%

    19 September, Thursday

    Time Temperature Precipitation Wind Pressure Humidity
    00:00 +16°C° 0 mm 5 mps 743 mmHg 74%
    01:00 +17°C° 0 mm 4 mps 744 mmHg 71%
    02:00 +15°C° 0 mm 4 mps 744 mmHg 68%
    03:00 +14°C° 0 mm 3 mps 745 mmHg 65%
    04:00 +14°C° 0 mm 3 mps 745 mmHg 62%
    05:00 +14°C° 0 mm 3 mps 746 mmHg 59%
    06:00 +14°C° 0 mm 2 mps 746 mmHg 57%
    07:00 +15°C° 0 mm 2 mps 747 mmHg 52%
    08:00 +16°C° 0 mm 2 mps 747 mmHg 48%
    09:00 +17°C° 0 mm 3 mps 747 mmHg 43%
    10:00 +18°C° 0 mm 2 mps 747 mmHg 40%
    11:00 +19°C° 0 mm 2 mps 747 mmHg 37%
    12:00 +20°C° 0 mm 2 mps 747 mmHg 34%
    13:00 +20°C° 0 mm 2 mps 747 mmHg 33%
    14:00 +20°C° 0 mm 2 mps 746 mmHg 32%
    15:00 +22°C° 0 mm 1 mps 746 mmHg 31%
    16:00 +20°C° 0 mm 2 mps 746 mmHg 33%
    17:00 +19°C° 0 mm 2 mps 746 mmHg 34%
    18:00 +18°C° 0 mm 3 mps 745 mmHg 35%
    19:00 +18°C° 0 mm 3 mps 745 mmHg 36%
    20:00 +17°C° 0 mm 3 mps 745 mmHg 36%
    21:00 +16°C° 0 mm 3 mps 745 mmHg 37%
    22:00 +16°C° 0 mm 3 mps 745 mmHg 40%
    23:00 +14°C° 0 mm 4 mps 745 mmHg 42%

    20 September, Friday

    Time Temperature Precipitation Wind Pressure Humidity
    00:00 +14°C° 0 mm 4 mps 745 mmHg 45%
    01:00 +13°C° 0 mm 4 mps 745 mmHg 54%
    02:00 +13°C° 0 mm 4 mps 745 mmHg 63%
    03:00 +12°C° 0 mm 4 mps 745 mmHg 72%
    04:00 +12°C° 0 mm 5 mps 745 mmHg 73%
    05:00 +12°C° 0 mm 5 mps 745 mmHg 74%
    06:00 +12°C° 0 mm 5 mps 745 mmHg 75%
    07:00 +12°C° 0 mm 5 mps 745 mmHg 72%
    08:00 +12°C° 0 mm 5 mps 745 mmHg 69%
    09:00 +13°C° 0 mm 6 mps 745 mmHg 65%
    10:00 +13°C° 0 mm 5 mps 745 mmHg 64%
    11:00 +13°C° 0 mm 5 mps 745 mmHg 62%
    12:00 +14°C° 0 mm 4 mps 745 mmHg 60%
    13:00 +15°C° 0 mm 4 mps 745 mmHg 57%
    14:00 +17°C° 0 mm 4 mps 744 mmHg 53%
    15:00 +17°C° 0 mm 4 mps 744 mmHg 49%
    16:00 +17°C° 0 mm 4 mps 744 mmHg 50%
    17:00 +16°C° 0 mm 3 mps 744 mmHg 51%
    18:00 +16°C° 0 mm 3 mps 744 mmHg 52%
    19:00 +14°C° 0 mm 4 mps 744 mmHg 51%
    20:00 +14°C° 0 mm 5 mps 744 mmHg 50%
    21:00 +13°C° 0 mm 6 mps 744 mmHg 49%
    22:00 +13°C° 0.3 mm 6 mps 744 mmHg 53%
    23:00 +11°C° 0.3 mm 7 mps 743 mmHg 57%
    Show more